• în Republica Moldova
  • Lista ţărilor
  • Pe 7 zile
  • Temperatura apei
  • Hartă satelitară
  • Meteo pe hartă
  • Widget-uri
  • user-avatar
    Intrare

    Meteo pe oră la Derlo

    Astăzi, 21 Iunie, Joi

    Timp Temperatura Precipitaţii Vânt Presiune Umiditate
    00:00 +22°C° 0 mm 1 m/s 752 mmHg 73%
    01:00 +22°C° 0 mm 1 m/s 751 mmHg 72%
    02:00 +22°C° 0 mm 1 m/s 751 mmHg 69%
    03:00 +21°C° 0 mm 2 m/s 751 mmHg 69%
    04:00 +21°C° 0 mm 2 m/s 751 mmHg 70%
    05:00 +21°C° 0 mm 2 m/s 751 mmHg 71%
    06:00 +21°C° 0 mm 2 m/s 750 mmHg 71%
    07:00 +22°C° 0 mm 3 m/s 750 mmHg 71%
    08:00 +22°C° 0 mm 3 m/s 749 mmHg 71%
    09:00 +25°C° 0 mm 4 m/s 749 mmHg 67%
    10:00 +26°C° 0 mm 4 m/s 748 mmHg 62%
    11:00 +27°C° 0 mm 4 m/s 748 mmHg 57%
    12:00 +28°C° 0 mm 5 m/s 747 mmHg 55%
    13:00 +29°C° 0 mm 5 m/s 746 mmHg 53%
    14:00 +30°C° 0 mm 5 m/s 746 mmHg 51%
    15:00 +29°C° 0,1 mm 5 m/s 745 mmHg 56%
    16:00 +28°C° 0,1 mm 5 m/s 744 mmHg 61%
    17:00 +28°C° 0,1 mm 4 m/s 744 mmHg 65%
    18:00 +27°C° 0,6 mm 4 m/s 743 mmHg 71%
    19:00 +26°C° 0,6 mm 4 m/s 742 mmHg 77%
    20:00 +23°C° 0,6 mm 4 m/s 742 mmHg 82%
    21:00 +23°C° 0,5 mm 5 m/s 742 mmHg 85%
    22:00 +22°C° 0,5 mm 5 m/s 742 mmHg 87%
    23:00 +21°C° 0,5 mm 5 m/s 743 mmHg 90%

    Mâine, 22 Iunie, Vineri

    Timp Temperatura Precipitaţii Vânt Presiune Umiditate
    00:00 +19°C° 0,1 mm 5 m/s 743 mmHg 90%
    01:00 +17°C° 0,1 mm 6 m/s 744 mmHg 91%
    02:00 +15°C° 0,1 mm 6 m/s 744 mmHg 92%
    03:00 +14°C° 0 mm 5 m/s 745 mmHg 91%
    04:00 +13°C° 0 mm 5 m/s 745 mmHg 89%
    05:00 +12°C° 0 mm 4 m/s 746 mmHg 88%
    06:00 +12°C° 0 mm 5 m/s 746 mmHg 84%
    07:00 +13°C° 0 mm 5 m/s 747 mmHg 81%
    08:00 +13°C° 0 mm 6 m/s 747 mmHg 77%
    09:00 +14°C° 0 mm 5 m/s 748 mmHg 70%
    10:00 +15°C° 0 mm 5 m/s 748 mmHg 63%
    11:00 +16°C° 0 mm 5 m/s 748 mmHg 56%
    12:00 +16°C° 0 mm 5 m/s 748 mmHg 52%
    13:00 +17°C° 0 mm 5 m/s 748 mmHg 48%
    14:00 +19°C° 0 mm 6 m/s 748 mmHg 43%
    15:00 +19°C° 0 mm 5 m/s 748 mmHg 44%
    16:00 +19°C° 0 mm 5 m/s 748 mmHg 45%
    17:00 +19°C° 0 mm 5 m/s 748 mmHg 45%
    18:00 +18°C° 0 mm 4 m/s 748 mmHg 50%
    19:00 +17°C° 0 mm 3 m/s 748 mmHg 56%
    20:00 +16°C° 0 mm 3 m/s 748 mmHg 61%
    21:00 +14°C° 0 mm 3 m/s 748 mmHg 63%
    22:00 +13°C° 0 mm 3 m/s 748 mmHg 66%
    23:00 +12°C° 0 mm 3 m/s 748 mmHg 68%

    Poimâine, 23 Iunie, Sâmbătă

    Timp Temperatura Precipitaţii Vânt Presiune Umiditate
    00:00 +12°C° 0 mm 2 m/s 748 mmHg 70%
    01:00 +12°C° 0 mm 2 m/s 748 mmHg 72%
    02:00 +10°C° 0 mm 2 m/s 748 mmHg 75%
    03:00 +10°C° 0 mm 2 m/s 748 mmHg 78%
    04:00 +9°C° 0 mm 2 m/s 748 mmHg 81%
    05:00 +9°C° 0 mm 2 m/s 748 mmHg 85%
    06:00 +11°C° 0 mm 3 m/s 748 mmHg 79%
    07:00 +13°C° 0 mm 3 m/s 748 mmHg 73%
    08:00 +16°C° 0 mm 3 m/s 748 mmHg 67%
    09:00 +17°C° 0,1 mm 3 m/s 748 mmHg 62%
    10:00 +18°C° 0,1 mm 3 m/s 748 mmHg 56%
    11:00 +19°C° 0,1 mm 4 m/s 747 mmHg 51%
    12:00 +19°C° 0,4 mm 4 m/s 747 mmHg 54%
    13:00 +19°C° 0,4 mm 5 m/s 747 mmHg 58%
    14:00 +19°C° 0,4 mm 5 m/s 747 mmHg 61%
    15:00 +17°C° 0,4 mm 5 m/s 747 mmHg 63%
    16:00 +17°C° 0,4 mm 5 m/s 746 mmHg 65%
    17:00 +16°C° 0,4 mm 5 m/s 746 mmHg 66%
    18:00 +15°C° 0,4 mm 4 m/s 746 mmHg 73%
    19:00 +14°C° 0,4 mm 4 m/s 746 mmHg 79%
    20:00 +13°C° 0,4 mm 3 m/s 747 mmHg 85%
    21:00 +12°C° 0,2 mm 3 m/s 747 mmHg 88%
    22:00 +12°C° 0,2 mm 3 m/s 747 mmHg 91%
    23:00 +11°C° 0,2 mm 3 m/s 747 mmHg 94%

    24 Iunie, Duminică

    Timp Temperatura Precipitaţii Vânt Presiune Umiditate
    00:00 +11°C° 0,1 mm 3 m/s 747 mmHg 95%
    01:00 +10°C° 0,1 mm 3 m/s 747 mmHg 96%
    02:00 +10°C° 0,1 mm 3 m/s 747 mmHg 96%
    03:00 +10°C° 0,1 mm 3 m/s 747 mmHg 96%
    04:00 +10°C° 0,1 mm 3 m/s 747 mmHg 96%
    05:00 +9°C° 0,1 mm 3 m/s 747 mmHg 96%
    06:00 +11°C° 0 mm 3 m/s 748 mmHg 90%
    07:00 +12°C° 0 mm 3 m/s 748 mmHg 84%
    08:00 +13°C° 0 mm 4 m/s 748 mmHg 77%
    09:00 +15°C° 0,1 mm 4 m/s 748 mmHg 70%
    10:00 +17°C° 0,1 mm 4 m/s 748 mmHg 64%
    11:00 +18°C° 0,1 mm 4 m/s 748 mmHg 57%
    12:00 +17°C° 0,5 mm 5 m/s 748 mmHg 59%
    13:00 +17°C° 0,5 mm 5 m/s 749 mmHg 62%
    14:00 +19°C° 0,5 mm 5 m/s 749 mmHg 64%
    15:00 +19°C° 0,3 mm 5 m/s 749 mmHg 63%
    16:00 +19°C° 0,3 mm 5 m/s 749 mmHg 62%
    17:00 +19°C° 0,3 mm 4 m/s 749 mmHg 61%
    18:00 +18°C° 0,2 mm 4 m/s 749 mmHg 67%
    19:00 +17°C° 0,2 mm 3 m/s 749 mmHg 73%
    20:00 +16°C° 0,2 mm 2 m/s 749 mmHg 79%
    21:00 +15°C° 0,1 mm 2 m/s 750 mmHg 82%
    22:00 +13°C° 0,1 mm 2 m/s 750 mmHg 86%
    23:00 +12°C° 0,1 mm 2 m/s 750 mmHg 89%

    25 Iunie, Luni

    Timp Temperatura Precipitaţii Vânt Presiune Umiditate
    00:00 +12°C° 0 mm 2 m/s 751 mmHg 90%
    01:00 +10°C° 0 mm 2 m/s 751 mmHg 91%
    02:00 +10°C° 0 mm 2 m/s 751 mmHg 91%
    03:00 +10°C° 0 mm 2 m/s 751 mmHg 91%
    04:00 +11°C° 0 mm 1 m/s 751 mmHg 91%
    05:00 +11°C° 0 mm 1 m/s 751 mmHg 91%
    06:00 +12°C° 0 mm 1 m/s 752 mmHg 84%
    07:00 +14°C° 0 mm 1 m/s 752 mmHg 77%
    08:00 +16°C° 0 mm 2 m/s 752 mmHg 70%
    09:00 +18°C° 0 mm 2 m/s 752 mmHg 63%
    10:00 +19°C° 0 mm 2 m/s 752 mmHg 56%
    11:00 +21°C° 0 mm 2 m/s 752 mmHg 49%
    12:00 +21°C° 0,1 mm 3 m/s 752 mmHg 49%
    13:00 +21°C° 0,1 mm 3 m/s 752 mmHg 48%
    14:00 +22°C° 0,1 mm 3 m/s 752 mmHg 48%
    15:00 +22°C° 0,2 mm 3 m/s 752 mmHg 51%
    16:00 +21°C° 0,2 mm 3 m/s 752 mmHg 53%
    17:00 +21°C° 0,2 mm 3 m/s 752 mmHg 55%
    18:00 +20°C° 0,2 mm 3 m/s 752 mmHg 62%
    19:00 +19°C° 0,2 mm 2 m/s 752 mmHg 69%
    20:00 +18°C° 0,2 mm 1 m/s 753 mmHg 75%
    21:00 +16°C° 0 mm 1 m/s 753 mmHg 78%
    22:00 +15°C° 0 mm 1 m/s 753 mmHg 81%
    23:00 +13°C° 0 mm 0 m/s 753 mmHg 84%

    26 Iunie, Marţi

    Timp Temperatura Precipitaţii Vânt Presiune Umiditate
    00:00 +12°C° 0 mm 0 m/s 753 mmHg 84%
    01:00 +13°C° 0 mm 1 m/s 753 mmHg 84%
    02:00 +13°C° 0 mm 1 m/s 753 mmHg 85%
    03:00 +13°C° 0 mm 1 m/s 753 mmHg 85%
    04:00 +13°C° 0 mm 1 m/s 753 mmHg 85%
    05:00 +13°C° 0 mm 1 m/s 753 mmHg 85%
    06:00 +14°C° 0 mm 1 m/s 753 mmHg 79%
    07:00 +16°C° 0 mm 1 m/s 753 mmHg 74%
    08:00 +19°C° 0 mm 1 m/s 754 mmHg 68%
    09:00 +20°C° 0,1 mm 1 m/s 754 mmHg 63%
    10:00 +21°C° 0,1 mm 1 m/s 753 mmHg 57%
    11:00 +21°C° 0,1 mm 2 m/s 753 mmHg 52%
    12:00 +21°C° 0,1 mm 2 m/s 753 mmHg 49%
    13:00 +23°C° 0,1 mm 1 m/s 753 mmHg 47%
    14:00 +24°C° 0,1 mm 1 m/s 753 mmHg 44%
    15:00 +24°C° 0 mm 1 m/s 753 mmHg 44%
    16:00 +24°C° 0 mm 1 m/s 753 mmHg 43%
    17:00 +24°C° 0 mm 1 m/s 752 mmHg 43%
    18:00 +23°C° 0 mm 1 m/s 752 mmHg 49%
    19:00 +21°C° 0 mm 1 m/s 752 mmHg 56%
    20:00 +20°C° 0 mm 1 m/s 752 mmHg 63%
    21:00 +18°C° 0,1 mm 2 m/s 752 mmHg 66%
    22:00 +17°C° 0,1 mm 2 m/s 753 mmHg 68%
    23:00 +15°C° 0,1 mm 2 m/s 753 mmHg 71%
    Arată mai mult